| time (UTC) | temp F | wind direction | speed MPH | gust MPH | rain 1hr in | rain 24hr in | rain mn in | humidity % | barometer mb |
| 20260505200054 | 53 | 207 | 0.0 | 3.0 | 0.00 | 0.00 | 0.00 | 73 | 1019.8 |
| 20260505194607 | 53 | 0 | 0.0 | 1.0 | 0.00 | 0.00 | 0.00 | 72 | 1019.6 |
| 20260505193057 | 54 | 198 | 0.0 | 2.0 | 0.00 | 0.00 | 0.00 | 71 | 1019.6 |
| 20260505191554 | 54 | 258 | 0.0 | 5.0 | 0.00 | 0.00 | 0.00 | 69 | 1019.4 |
| 20260505190050 | 55 | 239 | 0.0 | 4.0 | 0.00 | 0.00 | 0.00 | 68 | 1019.4 |
| 20260505184553 | 55 | 242 | 0.0 | 3.0 | 0.00 | 0.00 | 0.00 | 68 | 1019.4 |
| 20260505183052 | 56 | 240 | 0.0 | 8.0 | 0.00 | 0.00 | 0.00 | 67 | 1019.3 |
| 20260505181550 | 56 | 267 | 0.0 | 4.0 | 0.00 | 0.00 | 0.00 | 66 | 1019.3 |
| 20260505180057 | 57 | 269 | 1.0 | 3.0 | 0.00 | 0.00 | 0.00 | 64 | 1019.2 |
| 20260505174604 | 57 | 213 | 0.0 | 6.0 | 0.00 | 0.00 | 0.00 | 64 | 1019.3 |
| 20260505173048 | 57 | 143 | 1.0 | 7.0 | 0.00 | 0.00 | 0.00 | 65 | 1019.3 |
| 20260505171548 | 57 | 155 | 1.0 | 7.0 | 0.00 | 0.00 | 0.00 | 63 | 1019.3 |
| 20260505170126 | 58 | 107 | 1.0 | 6.0 | 0.00 | 0.00 | 0.00 | 62 | 1019.4 |
| 20260505164550 | 58 | 253 | 1.0 | 4.0 | 0.00 | 0.00 | 0.00 | 60 | 1019.4 |
| 20260505163052 | 59 | 207 | 1.0 | 5.0 | 0.00 | 0.00 | 0.00 | 59 | 1019.3 |
| 20260505161601 | 59 | 170 | 1.0 | 9.0 | 0.00 | 0.00 | 0.00 | 59 | 1019.2 |
| 20260505153059 | 61 | 149 | 1.0 | 3.0 | 0.00 | 0.00 | 0.00 | 56 | 1019.3 |
| 20260505151551 | 61 | 192 | 2.0 | 5.0 | 0.00 | 0.00 | 0.00 | 56 | 1019.3 |
| 20260505124551 | 62 | 84 | 1.0 | 4.0 | 0.00 | 0.00 | 0.00 | 53 | 1019.7 |
| 20260505123108 | 60 | 225 | 1.0 | 5.0 | 0.00 | 0.00 | 0.00 | 54 | 1019.7 |
| 20260505121549 | 61 | 171 | 1.0 | 6.0 | 0.00 | 0.00 | 0.00 | 53 | 1019.7 |
| 20260505120050 | 59 | 24 | 0.0 | 7.0 | 0.00 | 0.00 | 0.00 | 56 | 1019.8 |
| 20260505114611 | 60 | 217 | 0.0 | 5.0 | 0.00 | 0.00 | 0.00 | 57 | 1019.9 |
| 20260505113049 | 61 | 227 | 2.0 | 9.0 | 0.00 | 0.00 | 0.00 | 54 | 1019.9 |
| 20260505111604 | 60 | 259 | 1.0 | 4.0 | 0.00 | 0.00 | 0.00 | 56 | 1020.0 |
| 20260505101552 | 57 | 50 | 1.0 | 5.0 | 0.00 | 0.00 | 0.00 | 66 | 1020.4 |
| 20260505100055 | 57 | 179 | 0.0 | 4.0 | 0.00 | 0.00 | 0.00 | 67 | 1020.4 |
| 20260505094551 | 57 | 22 | 1.0 | 7.0 | 0.00 | 0.00 | 0.00 | 69 | 1020.5 |
| 20260505093050 | 55 | 226 | 1.0 | 3.0 | 0.00 | 0.00 | 0.00 | 73 | 1020.6 |
| 20260505091551 | 53 | 155 | 1.0 | 4.0 | 0.00 | 0.00 | 0.00 | 73 | 1020.6 |
| 20260505090055 | 53 | 219 | 0.0 | 3.0 | 0.00 | 0.00 | 0.00 | 74 | 1020.7 |
| 20260505084553 | 52 | 225 | 1.0 | 7.0 | 0.00 | 0.00 | 0.00 | 77 | 1020.8 |
| 20260505083101 | 52 | 144 | 1.0 | 4.0 | 0.00 | 0.00 | 0.00 | 80 | 1020.9 |
| 20260505081555 | 51 | 215 | 0.0 | 3.0 | 0.00 | 0.00 | 0.00 | 81 | 1021.0 |
| 20260505080051 | 51 | 209 | 0.0 | 3.0 | 0.00 | 0.00 | 0.00 | 83 | 1020.9 |
| 20260505074550 | 50 | 220 | 0.0 | 3.0 | 0.00 | 0.00 | 0.00 | 83 | 1020.9 |
| 20260505073049 | 50 | 231 | 0.0 | 3.0 | 0.00 | 0.00 | 0.00 | 85 | 1020.9 |
| 20260505071551 | 50 | 30 | 0.0 | 3.0 | 0.00 | 0.00 | 0.00 | 86 | 1020.8 |
| 20260505070053 | 49 | 84 | 0.0 | 3.0 | 0.00 | 0.00 | 0.00 | 87 | 1020.8 |
| 20260505064600 | 49 | 0 | 0.0 | 5.0 | 0.00 | 0.00 | 0.00 | 90 | 1020.8 |
| 20260505063055 | 47 | 0 | 0.0 | 1.0 | 0.00 | 0.00 | 0.00 | 93 | 1020.6 |
| 20260505061553 | 47 | 0 | 0.0 | 1.0 | 0.00 | 0.00 | 0.00 | 94 | 1020.7 |
| 20260505060056 | 47 | 0 | 0.0 | 0.0 | 0.00 | 0.00 | 0.00 | 94 | 1020.9 |
| 20260505054603 | 46 | 0 | 0.0 | 0.0 | 0.00 | 0.00 | 0.00 | 94 | 1020.9 |
| 20260505053110 | 46 | 0 | 0.0 | 0.0 | 0.00 | 0.00 | 0.00 | 94 | 1021.1 |
| 20260505051550 | 45 | 0 | 0.0 | 0.0 | 0.00 | 0.00 | 0.00 | 94 | 1021.0 |
| 20260505041611 | 45 | 0 | 0.0 | 0.0 | 0.00 | 0.00 | 0.00 | 93 | 1020.6 |
| 20260505040053 | 45 | 0 | 0.0 | 0.0 | 0.00 | 0.00 | 0.00 | 93 | 1020.6 |
| 20260505034553 | 45 | 0 | 0.0 | 0.0 | 0.00 | 0.00 | 0.00 | 92 | 1020.6 |
| 20260505033051 | 46 | 0 | 0.0 | 1.0 | 0.00 | 0.00 | 0.00 | 92 | 1020.7 |
| 20260505031600 | 46 | 0 | 0.0 | 1.0 | 0.00 | 0.00 | 0.00 | 92 | 1020.8 |
| 20260505030052 | 47 | 0 | 0.0 | 2.0 | 0.00 | 0.00 | 0.00 | 92 | 1020.8 |
| 20260505024555 | 47 | 0 | 0.0 | 1.0 | 0.00 | 0.00 | 0.00 | 92 | 1020.7 |
| 20260505023057 | 47 | 0 | 0.0 | 0.0 | 0.00 | 0.00 | 0.00 | 92 | 1020.7 |
| 20260505021551 | 47 | 0 | 0.0 | 1.0 | 0.00 | 0.00 | 0.00 | 92 | 1020.9 |
| 20260505020048 | 47 | 0 | 0.0 | 0.0 | 0.00 | 0.00 | 0.00 | 92 | 1021.0 |
| 20260505014551 | 47 | 0 | 0.0 | 0.0 | 0.00 | 0.00 | 0.00 | 92 | 1021.1 |
| 20260505013052 | 47 | 0 | 0.0 | 0.0 | 0.00 | 0.00 | 0.00 | 92 | 1021.2 |
| 20260505011550 | 46 | 0 | 0.0 | 0.0 | 0.00 | 0.00 | 0.00 | 92 | 1021.3 |
| 20260505010050 | 46 | 0 | 0.0 | 1.0 | 0.00 | 0.00 | 0.00 | 93 | 1021.3 |
| 20260505004552 | 45 | 0 | 0.0 | 0.0 | 0.00 | 0.00 | 0.00 | 92 | 1021.3 |
| 20260505003056 | 45 | 0 | 0.0 | 1.0 | 0.00 | 0.00 | 0.00 | 92 | 1021.3 |
| 20260505001553 | 46 | 0 | 0.0 | 1.0 | 0.00 | 0.00 | 0.00 | 91 | 1021.4 |
| 20260505000100 | 46 | 0 | 0.0 | 0.0 | 0.00 | 0.00 | 0.00 | 91 | 1021.6 |
| 20260504234602 | 46 | 0 | 0.0 | 0.0 | 0.00 | 0.00 | 0.00 | 90 | 1021.6 |
| 20260504233048 | 46 | 0 | 0.0 | 0.0 | 0.00 | 0.00 | 0.00 | 90 | 1021.7 |
| 20260504231601 | 47 | 0 | 0.0 | 0.0 | 0.00 | 0.00 | 0.00 | 89 | 1021.5 |
| 20260504230057 | 47 | 0 | 0.0 | 0.0 | 0.00 | 0.00 | 0.00 | 90 | 1021.5 |
| 20260504224556 | 48 | 0 | 0.0 | 1.0 | 0.00 | 0.01 | 0.00 | 89 | 1021.5 |
| 20260504223051 | 48 | 0 | 0.0 | 0.0 | 0.00 | 0.01 | 0.00 | 89 | 1021.6 |
| 20260504221558 | 48 | 0 | 0.0 | 0.0 | 0.00 | 0.01 | 0.00 | 88 | 1021.7 |
| 20260504220050 | 49 | 0 | 0.0 | 0.0 | 0.00 | 0.01 | 0.00 | 88 | 1021.7 |
| 20260504214551 | 50 | 0 | 0.0 | 0.0 | 0.00 | 0.14 | 0.00 | 87 | 1021.8 |
| 20260504213050 | 50 | 0 | 0.0 | 0.0 | 0.00 | 0.14 | 0.00 | 86 | 1021.7 |
| 20260504211553 | 51 | 0 | 0.0 | 1.0 | 0.00 | 0.14 | 0.00 | 86 | 1021.7 |
| 20260504210105 | 51 | 0 | 0.0 | 2.0 | 0.00 | 0.14 | 0.00 | 86 | 1021.8 |
| 20260504204600 | 52 | 0 | 0.0 | 2.0 | 0.00 | 0.29 | 0.00 | 85 | 1021.8 |
| 20260504203054 | 52 | 0 | 0.0 | 1.0 | 0.00 | 0.29 | 0.00 | 84 | 1021.7 |
| 20260504201602 | 53 | 0 | 0.0 | 1.0 | 0.00 | 0.29 | 0.00 | 83 | 1021.6 |